This demonstration page uses our WeatherBlox Daily Observations layout. Learn more.

39.01783, -85.05884

Hourly Observations for January 14, 2019

Temp ( °F °C ) Dew Point ( °F °C ) Humidity (%) Winds ( mph kmh ) Pressure ( in mb ) Visibility ( mi km ) Precip ( " mm )
12:18 am 00:18 Cloudy with Light Snow 29 -1.7 26 -3.3 89 89 NNW 8 13 30.33 1027 2 3.218688 0.001 0.001
12:52 am 00:52 Cloudy with Light Snow 29 -1.7 26 -3.3 89 89 N 9 15 30.27 1025 2 3.218688 0.001 0.001
1:52 am 01:52 Cloudy with Light Snow 29 -1.7 26 -3.3 89 89 N 8 13 30.3 1026 2 3.218688 0.001 0.001
2:45 am 02:45 Cloudy with Light Freezing Drizzle 28 -2.2 26 -3.3 92 92 NNW 9 15 30.36 1028 2 3.218688 0.001 0.001
2:52 am 02:52 Cloudy with Light Freezing Drizzle 28 -2.2 26 -3.3 92 92 N 8 13 30.3 1026 2 3.218688 0.001 0.001
3:52 am 03:52 Cloudy with Light Freezing Drizzle 28 -2.2 26 -3.3 92 92 NNW 6 9 30.3 1026 1 1.609344 0.001 0.001
4:30 am 04:30 Cloudy with Mist and Fog 28 -2.2 26 -3.3 92 92 NNW 6 9 30.36 1028 1 1.609344 0.001 0.001
4:52 am 04:52 Cloudy with Mist and Fog 28 -2.2 26 -3.3 92 92 NNW 7 11 30.3 1026 1 1.609344 0.001 0.001
5:49 am 05:49 Cloudy with Mist and Fog 28 -2 27 -3 93 93 NW 7 11 30.36 1028 0.5 0.804672 0 0
5:52 am 05:52 Cloudy with Mist and Fog 28 -2.2 26 -3.3 92 92 NNW 8 13 30.3 1026 0.5 0.804672 0 0
6:52 am 06:52 Cloudy with Mist and Fog 27 -2.8 25 -3.9 92 92 NNW 7 11 30.33 1027 0.5 0.804672 0 0
7:52 am 07:52 Cloudy with Mist and Fog 27 -2.8 25 -3.9 92 92 NNW 7 11 30.33 1027 0.5 0.804672 0 0
8:07 am 08:07 Cloudy with Mist and Fog 27 -2.8 25 -3.9 92 92 NNW 6 9 30.39 1029 1.5 2.414016 0 0
8:41 am 08:41 Cloudy with Mist and Fog 27 -2.8 25 -3.9 92 92 NNW 7 11 30.39 1029 2.5 4.02336 0 0
8:52 am 08:52 Cloudy with Mist and Fog 27 -2.8 25 -3.9 92 92 NNW 7 11 30.33 1027 2.5 4.02336 0 0
9:43 am 09:43 Cloudy with Mist and Fog 27 -2.8 25 -3.9 92 92 NNW 7 11 30.39 1029 2 3.218688 0 0
9:52 am 09:52 Cloudy with Mist and Fog 27 -2.8 25 -3.9 92 92 NNW 8 13 30.36 1028 2.5 4.02336 0 0
10:11 am 10:11 Cloudy with Mist and Fog 28 -2.2 25 -3.9 88 88 NW 9 15 30.42 1030 2.5 4.02336 0 0
10:52 am 10:52 Cloudy with Mist and Fog 27 -2.8 24 -4.4 89 89 N 9 15 30.36 1028 4 6.437376 0 0
11:52 am 11:52 Cloudy with Mist and Fog 27 -2.8 23 -5 85 85 NW 7 11 30.36 1028 5 8.04672 0 0
12:52 pm 12:52 Cloudy with Mist and Fog 27 -2.8 23 -5 85 85 NW 6 9 30.33 1027 6 9.656064 0 0
1:04 pm 13:04 Cloudy 28 -2.2 23 -5 81 81 NW 7 11 30.36 1028 7 11.265408 0 0
1:52 pm 13:52 Cloudy 28 -2.2 22 -5.6 78 78 NW 5 7 30.3 1026 7 11.265408 0 0
2:52 pm 14:52 Cloudy 28 -2.2 21 -6.1 75 75 WNW 6 9 30.3 1026 8 12.874752 0 0
3:24 pm 15:24 Cloudy 31 -0.6 22 -5.6 69 69 WNW 6 9 30.36 1028 9 14.484096 0 0
3:52 pm 15:52 Mostly Cloudy 29 -1.7 21 -6.1 72 72 Calm 30.3 1026 8 12.874752 0 0
4:20 pm 16:20 Partly Cloudy 29 -1.7 20 -6.7 69 69 W 6 9 30.36 1028 8 12.874752 0 0
4:52 pm 16:52 Mostly Sunny 29 -1.7 20 -6.7 69 69 Calm 30.3 1026 8 12.874752 0 0
5:52 pm 17:52 Mostly Clear 26 -3.3 20 -6.7 78 78 Calm 30.3 1026 7 11.265408 0 0
6:52 pm 18:52 Mostly Clear 24 -4.4 19 -7.2 81 81 Calm 30.33 1027 8 12.874752 0 0
7:24 pm 19:24 Mostly Cloudy 22 -5.6 19 -7.2 89 89 SW 3 6 30.39 1029 7 11.265408 0 0
7:52 pm 19:52 Partly Cloudy with Mist and Fog 22 -5.6 18 -7.8 85 85 Calm 30.3 1026 6 9.656064 0 0
8:22 pm 20:22 Cloudy 22 -5.6 19 -7.2 89 89 WSW 3 6 30.39 1029 7 11.265408 0 0
8:52 pm 20:52 Mostly Clear with Mist and Fog 21 -6.1 17 -8.3 85 85 Calm 30.3 1026 6 9.656064 0 0
9:52 pm 21:52 Clear with Mist and Fog 19 -7.2 15 -9.4 84 84 Calm 30.3 1026 6 9.656064 0 0
10:52 pm 22:52 Clear with Mist and Fog 18 -7.8 15 -9.4 88 88 Calm 30.33 1027 6 9.656064 0 0
11:52 pm 23:52 Clear with Mist and Fog 17 -8.3 14 -10 88 88 SW 5 7 30.33 1027 4 6.437376 0 0

Powered by AerisWeather